Regional Weather Roundup
Issued by NWS

Home | Current Version | Previous Version | Text Only | Print | Product List | Glossary Off
Versions: 1 2 3 4 5 6 7 8 9 10 11 12 13 14 15 16 17 18 19 20 21 22 23 24 25 26 27 28 29 30 31 32 33 34 35 36 37 38 39 40 41 42 43 44 45 46 47 48 49 50

288
ASUS43 KLOT 222309
RWRIL

ILLINOIS REGIONAL WEATHER ROUNDUP
NATIONAL WEATHER SERVICE CHICAGO/ROMEOVILLE IL
600 PM CDT TUE AUG 22 2017

NOTE: "FAIR" INDICATES FEW OR NO CLOUDS BELOW 12,000 FEET WITH NO
SIGNIFICANT WEATHER AND/OR OBSTRUCTIONS TO VISIBILITY.

* THESE STATIONS ARE NOT UNDER NWS QUALITY CONTROL. THEY ALSO MAY NOT
  REPORT WEATHER SUCH AS PRECIPITATION OR FOG.

ILZ001-002-007-009-015-016-024-230000-
NORTHWEST ILLINOIS

CITY           SKY/WX    TMP DP  RH WIND       PRES   REMARKS
MOLINE         SUNNY     76  50  40 NW15G24   30.01R
STERLING*      SUNNY     75  55  49 NW14G21   29.99S
SAVANNA*       MOSUNNY   75  52  44 NW14G21   30.00S
$$

ILZ003-004-008-010-011-017-018-230000-
NORTH CENTRAL ILLINOIS

CITY           SKY/WX    TMP DP  RH WIND       PRES   REMARKS
ROCKFORD       MOSUNNY   75  48  38 NW15      29.98R
FREEPORT*      SUNNY     73  51  46 NW13G23   30.00S
ROCHELLE*      SUNNY     74  54  49 NW13G18   29.98S
DE KALB*       MOSUNNY   73  56  53 NW8       29.97S
PERU*          SUNNY     73  55  52 NW13      29.98S
$$

ILZ005-006-012>014-019>023-230000-
NORTHEAST ILLINOIS

CITY           SKY/WX    TMP DP  RH WIND       PRES   REMARKS
CHICAGO-OHARE  MOSUNNY   78  50  37 NW15G25   29.93R
CHICAGO-MIDWAY MOSUNNY   78  51  38 NW13      29.92R
AURORA         SUNNY     73  56  54 NW12      29.96R
LANSING*       MOSUNNY   77  51  39 NW10G18   29.92R
JOLIET*        SUNNY     77  54  44 NW12G17   29.95R
WAUKEGAN       MOSUNNY   74  50  42 NW9G22    29.93R
DUPAGE AIRPORT MOSUNNY   76  53  44 NW14      29.94R
KANKAKEE*      SUNNY     76  58  53 NW12      29.94F
WHEELING       SUNNY     76  51  41 NW15G23   29.95R
MORRIS*        SUNNY     74  57  54 NW7       29.95R
ROMEOVILLE*    MOSUNNY   74  52  45 NW14G21   29.94S
NORTHERLY ISL    N/A     77  46  33 NW16        N/A
$$

LMZ740>746-230000-
SOUTHERN LAKE MICHIGAN

STATION/POSITION SKY/WX   TEMP    WIND        PRES    VSBY  WAVE
                          AIR SEA DIR/SP/G                  HT/PER
                          (F)     (DEG/KT/KT) (MB)    (MI)  (FT/S)
SOUTHERN BUOY              72 72  350/ 14/ 16 1012.3          3/ 5
WILMETTE HARBOR            75 74  310/ 16/ 19   N/A           3/ 4
HARRISON CRIB              76     310/ 19/ 21   N/A
CALUMET HARBOR             78     320/ 10/ 15 1012.6R
BURNS HARBOR               74     360/ 14/ 18 1013.5R
MICHIGAN CITY              72     360/ 18/ 20   N/A
MICHIGAN CITY 6N           73 74   20/ 14/ 16   N/A           3/ 4
ST. JOSEPH                 72 74   20/ 14/ 17 1013.1          4/ 5
$$

ILZ025>027-034>036-040-047-049-050-058-095>099-230000-
WEST-CENTRAL ILLINOIS

CITY           SKY/WX    TMP DP  RH WIND       PRES   REMARKS
QUINCY         SUNNY     77  53  43 NW14      30.02S
GALESBURG*     SUNNY     74  56  52 NW13      30.02S
MACOMB*        SUNNY     75  56  53 NW13      30.04R
JACKSONVILLE*  SUNNY     76  57  50 N12       30.00R
PITTSFIELD*    SUNNY     78  59  52 NW12      30.02S
$$

ILZ028>032-037-038-041>044-048-051>054-059>061-230000-
CENTRAL ILLINOIS

CITY           SKY/WX    TMP DP  RH WIND       PRES   REMARKS
PONTIAC        SUNNY     75  59  57 NW16G23   29.98R
BLOOMINGTON    MOSUNNY   76  57  51 N15       29.99S
DECATUR        MOSUNNY   78  59  51 NW12G23   29.97S
PEORIA         SUNNY     76  55  48 N12G18    29.99R
LACON*         MOSUNNY   75  56  52 NW12      29.98R
LINCOLN*       MOSUNNY   78  59  52 NW8G16    29.98S
SPRINGFIELD    MOSUNNY   79  61  53 N13       29.99R HX  80
TAYLORVILLE    SUNNY     76  59  55 NW12G17   29.98S
$$

ILZ033-039-045-046-055>057-062-063-230000-
EAST-CENTRAL ILLINOIS

CITY           SKY/WX    TMP DP  RH WIND       PRES   REMARKS
CHAMPAIGN      MOSUNNY   75  59  57 NW9G20    29.97R
RANTOUL*       MOSUNNY   78  62  57 NW10      29.96S
MATTOON        SUNNY     78  65  63 NW16G23   29.95R HX  80
PARIS*         MOSUNNY   78  66  65 NW14      29.96R HX  80
$$

ILZ079-100>102-230000-
SOUTHWEST ILLINOIS

CITY           SKY/WX    TMP DP  RH WIND       PRES   REMARKS
ALTON          MOSUNNY   81  66  61 NW7       29.98S HX  83
BELLEVILLE     SUNNY     82  66  58 NW10      29.99R HX  83
CAHOKIA*       PTSUNNY   83  64  52 N14       29.98R HX  84
SPARTA*        MOSUNNY   80  67  64 NW8       29.99F HX  82
$$

ILZ064>066-069>071-074>076-080>082-084>086-088>090-092>094-230000-
SOUTH-CENTRAL ILLINOIS

CITY           SKY/WX    TMP DP  RH WIND       PRES   REMARKS
CARBONDALE     PTSUNNY   79  69  71 N7        29.98R HX  81
CAIRO*         MOSUNNY   82  70  67 NW10      29.98R HX  85
EFFINGHAM*     MOSUNNY   80  66  62 NW10G18   29.98R HX  82
MARION         PTSUNNY   81  70  69 N7        29.98S HX  84
MT. VERNON       N/A     79  67  66 CALM      29.98R HX  81
CENTRALIA*     PTSUNNY   82  70  67 W9        29.97S HX  85
SALEM*         MOSUNNY   79  66  65 NW7       29.97S HX  81
METROPOLIS*    MOSUNNY   83  70  65 NW8       29.98R HX  87
$$

ILZ067-068-072-073-078-083-087-091-230000-
SOUTHEAST ILLINOIS

CITY           SKY/WX    TMP DP  RH WIND       PRES   REMARKS
LAWRENCEVILLE  MOSUNNY   82  67  60 NW10      29.94S HX  84
FLORA*         MOSUNNY   80  68  66 NW9       29.96F HX  83
FAIRFIELD*     PTSUNNY   80  67  64 CALM      29.95S HX  83
HARRISBURG*    MOSUNNY   81  69  68 N7        29.98R HX  84
ROBINSON*      PTSUNNY   80  68  66 N9        29.94F HX  82
CARMI*         MOSUNNY   79  70  73 NW5       29.96R HX  82
$$

ABBREVIATIONS USED IN REMARKS
   TC - TEMPERATURE IN CELSIUS
  WCI - WIND CHILL INDEX
   HX - HEAT INDEX
  VSB - VISIBILITY
$$





USA.gov is the U.S. government's official web portal to all federal, state and local government web resources and services.